Location: Malanoce
(44.2500°N, 7.4667°E)
Time: 05:07:55
(UTC+00:00)

Cosmos 1812 - Pass Details

Date: 17 November 2025
Orbit: 340 x 350 km, 82.5° (Epoch: 09 December)

Event Time Altitude Azimuth Distance (km) Brightness Sun altitude
Rises 17:21:55 0° 187° (S) 2,237 6.2 -14.4°
Reaches altitude 10° 17:23:54 10° 187° (S) 1,386 5.1 -14.8°
Maximum altitude 17:26:55 89° 102° (ESE) 381 1.9 -15.3°
Enters shadow 17:29:30 13° 9° (N) 1,212 4.4 -15.7°
